Wind_Speed
34 33 31 31 31 31 30 30 30 29 29 27 26 26 26 24 22 22 21 21 20 18 17 16 16 16 15 14 13 12 12 11 12 11 12 12 12 11 11 12 11 12 12 12
35 33 33 32 31 31 30 29 29 29 29 29 28 29 28 26 25 24 22 23 22 20 20 18 18 17 15 15 12 11 12 12 13 13 13 13 13 13 13 13 13 13 13 13
35 34 33 34 32 31 30 29 29 29 29 30 30 30 30 28 27 25 23 23 23 22 21 21 20 18 17 14 13 13 13 13 14 14 14 14 13 14 14 14 14 14 13 14
36 35 36 34 32 32 31 30 29 28 27 28 30 30 30 30 29 28 26 24 23 22 21 22 21 20 18 17 16 14 13 14 14 15 15 15 15 15 15 15 15 15 15 15
37 37 38 35 32 33 33 32 30 30 29 29 29 30 29 30 30 29 26 25 24 23 23 23 22 21 20 19 18 17 16 16 16 16 16 16 16 16 17 17 17 17 17 17
38 38 39 36 33 33 33 34 33 32 32 31 30 30 30 30 30 29 27 26 26 26 25 25 24 23 22 20 19 18 17 17 17 18 18 18 18 18 18 18 18 18 17 18
38 39 38 36 35 34 35 34 32 32 32 33 32 31 30 30 29 29 27 26 26 27 27 25 24 24 23 22 21 20 20 19 19 19 19 19 19 19 18 18 18 18 18 19
38 39 38 35 35 36 35 34 33 32 32 32 32 31 30 30 29 29 28 27 26 26 25 25 25 24 23 22 21 21 21 21 21 21 21 21 21 20 20 20 20 19 19 19
37 37 36 36 35 35 35 34 34 32 32 31 31 30 30 30 29 29 28 27 27 26 25 25 24 24 23 23 23 22 22 23 23 22 22 22 22 22 22 21 21 21 21 21
37 37 37 37 37 36 35 35 34 32 32 31 29 29 29 30 30 29 29 29 28 27 26 26 25 24 24 23 23 23 24 24 24 23 23 23 23 23 23 23 23 22 21 21
38 38 37 37 36 35 34 34 35 34 33 33 33 32 32 31 30 30 29 29 28 27 26 26 25 25 24 24 25 25 25 24 24 24 24 25 25 24 23 23 22 22 22 23
38 37 37 36 35 34 34 34 34 35 34 32 33 32 32 32 31 31 30 29 28 27 26 25 25 25 26 26 26 25 25 25 25 26 26 27 26 25 24 24 24 24 24 24
36 36 36 36 36 35 34 34 33 34 33 31 31 32 33 33 32 32 32 31 30 29 27 26 26 26 27 27 27 27 27 26 27 27 28 28 26 26 26 25 26 26 26 26
36 37 37 36 36 36 35 35 35 34 34 34 34 34 34 34 34 33 33 31 30 28 28 28 28 29 29 28 28 27 27 28 28 29 28 28 27 27 27 27 27 27 27 27
38 38 38 38 37 37 37 37 36 35 34 33 34 34 35 35 34 33 32 31 30 30 30 30 30 30 30 29 29 28 29 29 30 30 29 29 29 29 28 27 27 27 27 28
36 36 37 38 37 37 37 37 36 34 35 35 35 35 35 35 34 33 32 31 31 32 32 32 31 32 31 31 30 30 30 30 31 30 30 30 29 28 27 27 27 27 28 28
36 35 33 34 35 36 36 36 37 37 36 36 35 35 33 33 33 33 33 33 33 33 33 33 32 32 32 32 32 32 31 31 31 31 31 30 29 29 28 28 29 29 29 29
34 34 35 35 34 35 36 36 35 37 38 37 36 35 34 34 35 34 34 34 34 34 34 34 34 34 33 33 33 33 33 33 31 31 30 29 29 29 29 29 29 29 30 29
32 32 33 34 33 33 34 35 35 35 35 35 36 36 35 35 36 36 35 35 35 35 34 34 35 35 34 33 33 32 32 31 30 30 31 31 31 31 31 31 31 30 31 30
31 31 31 31 31 33 33 33 34 34 35 34 34 35 35 35 35 36 36 36 35 35 35 35 34 33 33 33 32 31 31 31 31 31 31 31 31 32 32 31 31 31 31 30
28 29 30 31 31 33 33 32 33 33 33 33 33 33 34 34 34 34 35 34 34 33 33 33 32 32 32 32 32 31 31 31 31 31 31 31 31 31 31 30 30 30 30 29
25 26 27 28 29 30 31 31 30 30 31 32 32 32 32 33 33 33 33 33 32 32 32 32 31 31 31 32 31 31 31 31 31 31 31 30 30 30 30 29 29 28 28 29
23 25 26 27 27 28 28 28 29 29 30 31 31 31 31 31 32 33 32 32 32 32 32 33 33 33 33 33 32 31 32 31 30 30 30 30 29 29 28 28 28 28 28 29
21 22 23 24 25 26 26 27 27 27 27 28 29 30 31 31 32 32 32 32 33 34 33 33 33 33 33 32 32 31 31 31 30 31 30 29 29 28 28 28 28 28 28 29
19 20 20 21 22 24 25 26 26 26 26 26 27 28 28 29 29 30 30 31 31 31 31 31 31 31 31 30 30 30 29 29 28 28 28 28 28 27 28 28 28 28 29 28
18 18 19 20 21 23 24 24 24 24 25 26 26 26 27 27 28 28 28 28 28 28 28 28 28 28 28 28 28 28 27 27 26 27 27 27 27 28 28 28 27 27 27 27
16 17 18 19 20 21 22 23 24 24 24 25 25 25 25 25 25 25 25 25 25 25 25 25 26 26 26 25 25 25 25 26 26 26 26 26 26 26 26 26 27 27 27 28
Wind_Direction
228 229 230 231 231 232 234 236 237 240 245 249 248 248 252 259 266 273 276 279 276 276 278 278 281 282 282 286 289 289 292 299 302 303 301 302 302 302 303 306 306 307 309 309
227 228 229 231 231 232 234 237 239 241 245 246 247 249 253 257 265 268 272 276 277 276 276 277 279 280 283 285 284 286 288 291 296 301 300 297 296 295 298 300 301 302 303 305
225 226 228 230 230 233 235 238 240 242 244 246 247 250 254 258 263 264 267 271 274 274 274 275 276 278 278 281 284 286 288 290 292 296 296 294 293 295 296 296 298 300 301 302
225 226 228 231 230 232 235 238 240 243 245 246 249 252 256 258 262 265 265 268 271 273 273 273 276 278 277 280 278 278 282 288 292 294 293 291 291 293 295 298 298 297 297 297
225 227 231 231 230 232 234 238 241 244 246 248 249 252 256 260 263 267 264 266 268 270 269 269 272 273 276 275 276 280 280 283 286 290 290 290 291 292 295 297 296 296 293 293
226 227 230 230 231 233 236 239 240 243 245 249 251 253 257 260 263 264 267 267 268 269 267 267 269 269 272 271 271 276 279 280 281 284 287 286 287 290 293 296 296 295 297 295
227 229 231 231 231 234 237 240 241 243 245 247 250 254 256 259 260 263 267 268 268 268 266 263 264 268 271 268 270 274 276 278 279 281 284 284 284 287 291 294 295 294 296 296
228 230 231 233 234 236 239 241 242 243 245 246 248 252 254 258 259 263 266 267 268 270 267 267 269 268 269 270 272 273 275 277 280 282 283 286 284 284 287 291 294 293 295 297
230 232 233 234 236 238 240 241 242 243 244 247 248 251 256 257 259 261 264 265 267 268 269 269 272 273 269 271 273 274 277 278 280 281 282 283 284 285 287 288 290 291 292 293
231 232 234 235 236 238 239 241 244 244 244 247 248 251 255 256 258 260 262 264 266 267 268 268 270 272 270 271 273 274 276 279 279 279 280 280 281 283 286 288 288 288 289 291
233 234 234 235 236 238 240 241 242 244 246 247 250 252 252 254 257 260 262 264 266 267 266 265 267 269 269 270 271 274 275 278 280 280 280 279 280 280 283 285 288 289 290 291
232 233 234 236 238 239 241 243 244 244 247 246 246 248 251 254 256 259 262 264 265 266 266 265 267 269 268 269 271 274 275 276 278 279 279 278 279 280 282 285 287 288 289 289
230 232 234 236 238 241 242 245 247 245 245 246 247 248 250 252 254 257 260 264 264 264 264 265 266 268 269 269 270 271 271 273 276 278 278 279 278 279 282 285 286 287 288 289
231 233 234 236 238 242 244 246 246 246 246 247 250 251 251 252 255 257 259 261 261 261 262 264 266 268 270 272 271 271 270 272 276 278 277 277 277 277 279 282 284 286 287 288
234 234 236 237 240 244 245 246 247 246 247 250 252 254 254 255 255 256 257 258 259 260 262 264 265 267 269 271 271 272 272 274 276 278 278 278 277 277 279 281 283 285 286 287
237 238 240 240 242 243 245 247 246 248 249 250 252 255 257 257 256 256 257 258 259 261 263 264 265 266 267 269 271 272 273 274 276 277 277 277 277 277 279 281 282 283 285 286
239 240 242 241 242 244 246 248 249 248 249 251 253 253 255 254 255 258 259 259 259 260 262 262 264 266 267 268 270 271 272 274 275 277 277 277 275 276 278 281 283 284 284 285
239 241 242 243 242 243 245 248 251 250 250 252 254 254 254 256 257 258 259 259 259 259 260 261 263 265 266 268 270 271 272 274 275 275 275 274 275 276 278 279 281 283 285 285
239 241 241 242 243 244 245 248 250 251 252 253 254 254 255 255 256 258 259 259 259 260 260 262 263 265 267 268 269 270 271 273 273 273 273 275 275 275 276 278 279 281 283 284
241 241 242 243 245 246 249 251 252 254 253 253 255 256 257 257 257 258 259 259 259 260 260 261 263 264 266 267 269 270 272 273 273 274 275 275 275 276 276 277 278 278 279 280
245 247 247 247 248 249 251 254 254 255 254 254 255 257 257 257 258 258 258 258 259 259 259 260 262 263 265 266 267 269 270 271 272 273 275 275 275 275 275 275 276 277 278 279
248 248 248 248 250 251 252 254 256 255 254 254 255 256 256 256 256 256 256 257 257 258 258 259 261 263 265 267 269 269 268 268 269 271 273 274 274 274 274 274 275 277 279 279
251 251 251 251 251 253 255 256 256 255 255 254 254 254 255 255 255 256 256 257 257 258 259 260 261 263 264 267 268 269 268 268 268 271 272 273 273 273 273 273 274 277 279 281
253 253 252 250 249 251 254 255 256 256 255 255 254 255 255 254 254 255 255 256 257 258 259 261 262 263 265 266 267 268 268 267 268 270 271 272 272 272 271 272 274 277 278 280
253 253 252 251 250 251 254 257 257 256 256 256 256 255 254 254 253 254 255 257 257 258 258 260 261 263 264 265 264 264 266 267 268 268 268 270 270 270 270 271 273 275 277 279
252 254 254 254 254 255 255 256 257 257 256 256 256 255 255 254 253 253 253 254 255 256 258 259 260 261 261 261 263 263 264 265 267 269 269 269 268 268 269 271 273 276 277 279
256 257 257 257 257 256 256 256 257 258 257 256 255 255 256 255 253 251 250 251 252 254 255 256 257 258 260 262 263 264 265 266 267 268 268 268 267 268 269 271 272 275 278 281
Height
5866 5871 5874 5877 5880 5883 5886 5888 5891 5894 5896 5899 5901 5902 5903 5905 5905 5906 5906 5906 5906 5906 5907 5907 5907 5906 5905 5905 5903 5902 5901 5900 5899 5898 5897 5896 5894 5893 5892 5890 5889 5888 5886 5885
5859 5864 5867 5870 5874 5877 5880 5883 5885 5888 5890 5893 5894 5896 5897 5899 5900 5901 5901 5901 5901 5902 5902 5902 5902 5901 5901 5900 5897 5897 5897 5897 5896 5895 5894 5893 5891 5890 5889 5888 5886 5885 5883 5882
5853 5857 5860 5863 5868 5871 5874 5876 5879 5881 5884 5886 5887 5889 5891 5893 5895 5895 5896 5897 5897 5897 5897 5897 5897 5897 5897 5895 5894 5894 5894 5893 5891 5891 5890 5889 5888 5887 5885 5884 5883 5881 5880 5878
5846 5851 5853 5860 5863 5865 5868 5870 5873 5876 5877 5879 5881 5883 5884 5886 5888 5889 5890 5891 5892 5892 5892 5892 5892 5892 5892 5891 5890 5890 5890 5889 5888 5887 5886 5885 5884 5883 5881 5880 5879 5878 5876 5875
5838 5842 5846 5852 5856 5859 5861 5863 5867 5869 5871 5873 5875 5877 5878 5880 5881 5882 5883 5885 5886 5886 5887 5887 5887 5887 5887 5886 5885 5885 5886 5885 5884 5883 5882 5881 5880 5879 5877 5876 5874 5873 5871 5870
5831 5835 5838 5846 5850 5851 5855 5857 5860 5862 5865 5867 5869 5871 5873 5874 5875 5876 5877 5879 5880 5880 5880 5881 5881 5881 5881 5880 5880 5881 5881 5880 5879 5879 5877 5876 5875 5874 5873 5871 5870 5868 5866 5865
5823 5826 5831 5838 5842 5844 5848 5851 5854 5856 5858 5860 5863 5865 5868 5868 5869 5870 5871 5872 5873 5873 5873 5874 5874 5875 5876 5876 5876 5875 5875 5874 5874 5873 5872 5871 5870 5869 5868 5866 5865 5863 5862 5860
5815 5819 5826 5831 5834 5837 5840 5844 5846 5848 5851 5853 5856 5858 5860 5861 5863 5864 5865 5866 5866 5866 5866 5867 5867 5868 5869 5869 5869 5869 5869 5869 5868 5867 5866 5865 5864 5863 5862 5861 5860 5858 5857 5855
5810 5815 5819 5822 5826 5829 5832 5835 5838 5841 5843 5846 5848 5850 5852 5854 5855 5857 5858 5859 5859 5859 5860 5861 5861 5861 5862 5863 5863 5863 5863 5863 5862 5861 5860 5859 5859 5858 5857 5855 5854 5853 5851 5850
5801 5805 5810 5813 5817 5820 5823 5827 5830 5833 5836 5838 5840 5842 5844 5846 5848 5849 5851 5852 5852 5853 5853 5854 5854 5855 5856 5856 5856 5856 5856 5856 5855 5855 5854 5853 5852 5851 5850 5849 5848 5847 5845 5844
5793 5797 5801 5804 5808 5812 5816 5819 5822 5825 5827 5830 5832 5834 5837 5838 5840 5842 5843 5844 5845 5846 5846 5846 5847 5848 5848 5849 5849 5849 5849 5849 5848 5848 5847 5847 5846 5845 5844 5843 5841 5840 5839 5838
5786 5790 5794 5798 5801 5805 5808 5811 5813 5817 5820 5822 5824 5827 5828 5830 5832 5833 5834 5835 5837 5838 5839 5839 5840 5840 5841 5841 5842 5841 5842 5842 5842 5841 5841 5840 5839 5838 5837 5836 5835 5834 5833 5831
5778 5782 5786 5790 5793 5797 5800 5803 5805 5808 5811 5814 5816 5818 5820 5821 5823 5825 5826 5828 5829 5830 5831 5832 5832 5833 5833 5833 5833 5834 5834 5834 5834 5833 5833 5832 5831 5830 5830 5829 5828 5826 5825 5824
5770 5774 5778 5782 5785 5789 5792 5795 5797 5799 5802 5805 5807 5809 5811 5813 5815 5816 5818 5819 5821 5822 5823 5824 5825 5825 5826 5825 5825 5826 5826 5826 5826 5825 5825 5824 5823 5822 5822 5821 5820 5819 5818 5816
5762 5765 5769 5773 5776 5780 5783 5786 5788 5790 5792 5795 5798 5800 5802 5804 5806 5808 5809 5811 5812 5813 5814 5815 5816 5817 5817 5817 5817 5817 5817 5817 5817 5816 5816 5815 5815 5814 5813 5812 5812 5811 5809 5808
5754 5757 5761 5764 5767 5771 5774 5776 5778 5781 5783 5785 5788 5790 5792 5794 5796 5799 5800 5802 5803 5804 5805 5806 5807 5807 5807 5808 5808 5808 5808 5808 5808 5807 5807 5806 5805 5805 5804 5804 5803 5802 5801 5800
5746 5749 5752 5754 5757 5760 5764 5766 5769 5771 5773 5776 5778 5781 5782 5784 5787 5789 5791 5792 5794 5795 5796 5796 5797 5797 5798 5798 5798 5798 5799 5799 5799 5798 5798 5797 5796 5796 5795 5795 5794 5793 5792 5791
5737 5740 5743 5746 5749 5751 5754 5757 5759 5762 5764 5766 5768 5771 5773 5775 5777 5779 5780 5782 5783 5784 5786 5786 5787 5787 5788 5788 5788 5789 5789 5789 5789 5788 5788 5788 5788 5787 5786 5786 5785 5784 5783 5782
5728 5731 5734 5737 5740 5742 5745 5748 5750 5752 5754 5756 5758 5761 5763 5765 5767 5768 5770 5771 5773 5774 5775 5776 5776 5777 5777 5778 5779 5779 5779 5779 5779 5779 5779 5778 5778 5777 5777 5777 5776 5775 5774 5773
5720 5723 5725 5728 5731 5733 5736 5738 5740 5741 5743 5746 5748 5750 5752 5754 5756 5757 5759 5760 5762 5763 5764 5765 5766 5767 5768 5768 5768 5769 5769 5770 5769 5769 5769 5768 5768 5767 5767 5767 5766 5765 5764 5764
5713 5715 5717 5720 5722 5724 5727 5729 5731 5732 5733 5735 5737 5739 5741 5743 5744 5746 5747 5749 5751 5752 5753 5755 5756 5757 5757 5758 5758 5759 5759 5759 5759 5759 5759 5758 5757 5757 5757 5757 5756 5755 5755 5754
5705 5707 5709 5711 5713 5716 5717 5719 5721 5722 5723 5725 5727 5729 5731 5733 5734 5735 5737 5739 5741 5741 5743 5744 5746 5747 5747 5748 5748 5749 5749 5749 5749 5749 5749 5748 5747 5747 5747 5747 5746 5746 5745 5744
5698 5699 5701 5703 5705 5707 5709 5710 5711 5713 5714 5716 5718 5719 5721 5722 5724 5725 5727 5729 5730 5731 5733 5734 5736 5737 5737 5738 5738 5739 5739 5739 5739 5739 5739 5738 5738 5737 5737 5737 5737 5737 5736 5735
5691 5692 5694 5695 5697 5699 5701 5702 5703 5704 5705 5707 5708 5709 5710 5712 5713 5715 5716 5718 5719 5721 5722 5724 5725 5726 5726 5727 5727 5728 5729 5729 5729 5729 5729 5729 5729 5728 5728 5728 5728 5728 5727 5726
5685 5686 5687 5688 5690 5691 5693 5694 5695 5696 5697 5697 5698 5699 5700 5701 5702 5704 5706 5708 5709 5710 5712 5713 5714 5715 5716 5716 5717 5718 5718 5719 5719 5719 5720 5719 5719 5719 5719 5719 5719 5719 5718 5717
5679 5680 5681 5682 5683 5684 5685 5686 5686 5687 5688 5689 5689 5690 5691 5692 5693 5694 5696 5698 5699 5701 5702 5703 5704 5705 5706 5707 5707 5708 5709 5709 5710 5710 5710 5710 5710 5710 5710 5710 5710 5710 5709 5708
5673 5674 5675 5675 5676 5677 5677 5678 5678 5679 5680 5680 5681 5682 5683 5684 5684 5686 5687 5689 5691 5692 5693 5695 5696 5697 5697 5698 5698 5699 5700 5700 5701 5701 5701 5701 5701 5701 5701 5701 5702 5701 5700 5699